Home   Weather   Stockton   Past weeks
Flag for USA

Past Weather in Stockton, California, USA — Yesterday and Last 2 Weeks

Now
70 °F

Clear.


Feels Like: 77 °F
Forecast: 88 / 51 °F
Wind: 6 mph from Southwest

Location: Stockton Metropolitan Airport

Current Time: Oct 23, 2019 at 9:34:23 pm

Latest Report: Oct 23, 2019 at 7:55 pm


Visibility: 10 mi

Pressure: 29.89 "Hg

Humidity: 39%

Dew Point: 44 °F

Location of StocktonLocation

Past Weather in Stockton — Graph

°F

Stockton Temperature Yesterday

Maximum temperature yesterday: 85 °F (at 3:55 pm)
Minimum temperature yesterday: 48 °F (at 6:55 am)
Average temperature yesterday: 66 °F

High & Low Weather Summary for the Past Weeks

 TemperatureHumidityPressure
High86 °F (Oct 21, 3:55 pm)87% (Oct 20, 2:55 am)30.20 "Hg (Oct 20, 2:55 am)
Low44 °F (Oct 12, 6:55 am)12% (Oct 10, 12:55 pm)29.77 "Hg (Oct 8, 7:55 pm)
Average64 °F46%29.97 "Hg
* Reported Oct 8 7:55 pm — Oct 23 7:55 pm, Stockton. Weather by CustomWeather, © 2019

Note: Actual official high and low records may vary slightly from our data, if they occured in-between our weather recording intervals... More about our weather records

Advertising

Stockton Weather History for the Previous 24 Hours

Scroll right to see more
 ConditionsComfort  
Time TempWeatherWind HumidityBarometerVisibility
7:55 pm
Wed, Oct 23
70 °FClear.6 mph39%29.89 "Hg10 mi
6:55 pm73 °FClear.6 mph38%29.88 "Hg8 mi
5:55 pm81 °FSunny.3 mph29%29.89 "Hg9 mi
4:55 pm86 °FSunny.6 mph25%29.90 "Hg10 mi
3:55 pm85 °FSunny.8 mph26%29.91 "Hg10 mi
2:55 pm85 °FSunny.10 mph28%29.91 "Hg10 mi
1:55 pm81 °FSunny.5 mph32%29.94 "Hg10 mi
12:55 pm80 °FSunny.7 mph32%29.97 "Hg10 mi
11:55 am77 °FSunny.5 mph37%30.00 "Hg10 mi
10:55 am74 °FSunny.3 mph41%30.01 "Hg10 mi
9:55 am71 °FSunny.No wind45%30.02 "Hg10 mi
8:55 am64 °FSunny.3 mph54%30.01 "Hg9 mi
7:55 am51 °FSunny.5 mph74%30.01 "Hg10 mi
6:55 am51 °FClear.No wind74%30.01 "Hg10 mi
5:55 am53 °FClear.5 mph74%30.01 "Hg10 mi
4:55 am54 °FClear.7 mph67%30.01 "Hg10 mi
3:55 am54 °FClear.No wind72%30.00 "Hg10 mi
2:55 am54 °FClear.No wind67%30.02 "Hg10 mi
1:55 am56 °FClear.3 mph62%30.02 "Hg10 mi
12:55 am58 °FClear.5 mph58%30.02 "Hg10 mi
11:55 pm
Tue, Oct 22
60 °FClear.No wind53%30.02 "Hg10 mi
10:55 pm63 °FClear.No wind52%30.03 "Hg10 mi
9:55 pm65 °FClear.5 mph49%30.03 "Hg10 mi
Weather by CustomWeather, © 2019

See weather overview